Flag for Germany Weather past 2 weeks in Hanau, Hesse, Germany

Now
59 °F

Light rain. Broken clouds.


Feels Like: 58 °F
Forecast: 46 / 59 °F
Wind: 8 mph from Northwest

Location: Frankfurt-M-Flughafen Airport

Current Time: May 25, 2015 at 5:45:45 PM

Latest Report: May 25, 2015 at 5:20 PM


Visibility: N/A

Pressure: 29.92 "Hg

Humidity: 82%

Dew point: 54 °F

Location of HanauLocation

Historic Weather in Hanau — Graph

°F

Hanau temperature yesterday

Maximum temperature yesterday: 72 °F (at 2:20 PM)
Minimum temperature yesterday: 57 °F (at 4:50 AM)
Average temperature yesterday: 64 °F

Past Weeks' High & Low Weather Summary

 TemperatureHumidityPressure
High84 °F (May 12, 4:20 PM)94% (May 12, 2:20 AM)30.33 "Hg (May 12, 2:20 AM)
Low39 °F (May 22, 4:50 AM)23% (May 18, 3:20 PM)29.68 "Hg (May 18, 7:20 PM)
Average60 °F57%30.06 "Hg
* Reported May 10 4:20 PM — May 25 4:50 PM, Hanau, Weather by CustomWeather, © 2015

Note: Actual official high and low records may vary slightly from our data, if they occured in-between our weather recording intervals... More about our weather records

Advertising

Hanau weather history for previous 24 hours

 ConditionsComfort  
Time TempWeatherWind HumidityBarometerVisibility
4:50 PM
Mon, May 25
59 °FSprinkles. Broken clouds.10 mph77%29.92 "HgN/A
4:20 PM63 °FSprinkles. Partly sunny.9 mph64%29.92 "HgN/A
3:50 PM63 °FSprinkles. Partly sunny.14 mph59%29.92 "HgN/A
3:20 PM64 °FScattered showers. Partly sunny.15 mph52%29.92 "HgN/A
2:50 PM66 °FPartly sunny.12 mph46%29.92 "HgN/A
2:20 PM66 °FPartly sunny.8 mph46%29.92 "HgN/A
1:50 PM66 °FBroken clouds.7 mph46%29.92 "HgN/A
1:20 PM66 °FBroken clouds.10 mph46%29.95 "HgN/A
12:50 PM66 °FBroken clouds.7 mph43%29.95 "HgN/A
12:20 PM64 °FPartly sunny.7 mph49%29.95 "HgN/A
11:50 AM64 °FPartly sunny.6 mph52%29.95 "HgN/A
11:20 AM64 °FPartly sunny.8 mph52%29.95 "HgN/A
10:50 AM63 °FPartly sunny.9 mph59%29.95 "HgN/A
10:20 AM64 °FPartly sunny.7 mph56%29.95 "HgN/A
9:50 AM63 °FPartly sunny.6 mph64%29.98 "HgN/A
9:20 AM63 °FScattered showers. Broken clouds.3 mph64%29.98 "HgN/A
8:50 AM63 °FScattered showers. Partly sunny.1 mph68%29.98 "HgN/A
8:20 AM63 °FPassing clouds.3 mph73%29.98 "HgN/A
7:50 AM61 °FPassing clouds.3 mph72%29.98 "HgN/A
7:20 AM59 °FSunny.No wind82%29.98 "Hg10 mi
6:50 AM57 °FPassing clouds.3 mph88%29.98 "HgN/A
6:20 AM55 °FClear.1 mph94%29.98 "Hg10 mi
5:50 AM55 °FPassing clouds.3 mph88%29.98 "HgN/A
5:20 AM55 °FPassing clouds.3 mph88%29.98 "HgN/A
4:50 AM57 °FClear.2 mph82%29.98 "Hg10 mi
4:20 AM57 °FClear.2 mph88%29.98 "Hg10 mi
3:50 AM57 °FPassing clouds.3 mph82%29.98 "HgN/A
3:20 AM59 °FPassing clouds.3 mph82%29.98 "HgN/A
2:50 AM59 °FClear.5 mph82%29.98 "Hg10 mi
2:20 AM59 °FPassing clouds.5 mph82%30.01 "HgN/A
1:50 AM59 °FClear.3 mph77%30.01 "Hg10 mi
1:20 AM59 °FClear.2 mph82%30.01 "Hg10 mi
12:50 AM61 °FPassing clouds.3 mph72%30.01 "HgN/A
12:20 AM61 °FClear.1 mph72%30.01 "Hg10 mi
11:20 PM
Sun, May 24
61 °FPassing clouds.3 mph72%30.01 "HgN/A
10:50 PM63 °FClear.5 mph68%30.01 "Hg10 mi
10:20 PM66 °FClear.2 mph52%30.01 "Hg10 mi
9:50 PM63 °FSunny.3 mph68%30.01 "Hg10 mi
9:20 PM66 °FPassing clouds.3 mph56%30.01 "HgN/A
8:50 PM66 °FSunny.3 mph56%30.01 "Hg10 mi
8:20 PM68 °FPartly sunny.2 mph49%30.01 "HgN/A
7:50 PM68 °FPartly sunny.3 mph49%30.01 "HgN/A
7:20 PM68 °FPartly sunny.3 mph46%30.01 "HgN/A
6:50 PM68 °FPartly sunny.3 mph46%30.01 "HgN/A
6:20 PM70 °FPartly sunny.2 mph46%30.01 "HgN/A
5:50 PM70 °FPartly sunny.3 mph43%30.04 "HgN/A
5:20 PM70 °FPartly sunny.3 mph46%30.04 "HgN/A
Weather by CustomWeather, © 2015

See weather overviewHow to use our weather pages